Hillsdale, MI

5:02 PM EST on November 13, 2019 (GMT -0500)
Hillsdale Municipal

Weather History for KJYM - September, 2019

Change the Weather History Date:

Monday, September 16, 2019

  Actual Average Record
Temperature  
Mean Temperature 67 °F -  
Max Temperature 76 °F 70 °F 90 °F (1955)
Min Temperature 59 °F 49 °F 30 °F (1966)
Cooling Degree Days 2    
Growing Degree Days 17 (Base 50)    
Moisture  
Dew Point 63 °F    
Average Humidity 83    
Maximum Humidity 97    
Minimum Humidity 68    
Precipitation  
Precipitation 0.00 in - - ()
Sea Level Pressure  
Sea Level Pressure 30.10 in    
Wind  
Wind Speed 2 mph ()    
Max Wind Speed 12 mph    
Max Gust Speed -    
Visibility 9.9 miles    
Events      
Averages and records for this station are not official NWS values.
T = Trace of Precipitation, MM = Missing Value Source: Averaged Metar Reports

Daily Weather History Graph

Daily Weather History Graph

Search for Another Location

Airport or City:

Astronomy

Sep. 16, 2019 Rise Set
Actual Time 7:19 AM EDT 7:46 PM EDT
Civil Twilight 6:51 AM EDT 8:14 PM EDT
Nautical Twilight 6:18 AM EDT 8:47 PM EDT
Astronomical Twilight 5:44 AM EDT 9:21 PM EDT
Moon 9:18 PM EDT (9/16) 9:26 AM EDT (9/16)
Length of Visible Light 13h 23m
Length of Day
12h 27m
Waning Gibbous, 94% of the Moon is Illuminated
Sep 16
Waning Gibbous
Sep 21
Last Quarter
Sep 28
New
Oct 5
First Quarter
Oct 13
Full

Hourly Weather History & Observations

Time (EDT) Temp. Dew Point Humidity Pressure Visibility Wind Dir Wind Speed Gust Speed Precip Events Conditions
12:19 AM 67.1 °F 61.9 °F 83% 30.06 in 10.0 mi Calm Calm - N/A   Overcast
12:37 AM 65.7 °F 61.9 °F 88% 30.05 in 10.0 mi Calm Calm - N/A   Overcast
12:55 AM 65.7 °F 61.7 °F 87% 30.05 in 10.0 mi Calm Calm - N/A   Overcast
12:56 AM 65.7 °F 61.7 °F 87% 30.05 in 10.0 mi Calm Calm - N/A   Overcast
1:15 AM 66.4 °F 61.3 °F 84% 30.05 in 10.0 mi Calm Calm - N/A   Overcast
1:35 AM 66.2 °F 62.1 °F 86% 30.05 in 10.0 mi Calm Calm - N/A   Overcast
1:58 AM 65.7 °F 61.5 °F 86% 30.05 in 10.0 mi Calm Calm - N/A   Mostly Cloudy
2:16 AM 65.1 °F 61.7 °F 89% 30.05 in 10.0 mi Calm Calm - N/A   Scattered Clouds
2:35 AM 63.3 °F 60.6 °F 91% 30.06 in 10.0 mi Calm Calm - N/A   Mostly Cloudy
2:55 AM 62.4 °F 60.4 °F 93% 30.05 in 10.0 mi Calm Calm - N/A   Mostly Cloudy
3:18 AM 61.7 °F 59.9 °F 94% 30.05 in 10.0 mi Calm Calm - N/A   Mostly Cloudy
3:36 AM 61.7 °F 60.1 °F 94% 30.04 in 10.0 mi Calm Calm - N/A   Scattered Clouds
3:55 AM 61.2 °F 59.7 °F 95% 30.05 in 10.0 mi Calm Calm - N/A   Scattered Clouds
4:15 AM 61.9 °F 60.1 °F 94% 30.05 in 10.0 mi Calm Calm - N/A   Scattered Clouds
4:16 AM 61.9 °F 60.1 °F 94% 30.05 in 10.0 mi Calm Calm - N/A   Scattered Clouds
4:39 AM 61.7 °F 59.9 °F 94% 30.06 in 10.0 mi Calm Calm - N/A   Mostly Cloudy
4:57 AM 61.9 °F 59.9 °F 93% 30.06 in 10.0 mi Calm Calm - N/A   Mostly Cloudy
5:15 AM 61.2 °F 59.4 °F 94% 30.06 in 10.0 mi Calm Calm - N/A   Mostly Cloudy
5:35 AM 63.0 °F 60.6 °F 92% 30.06 in 10.0 mi Calm Calm - N/A   Overcast
5:36 AM 63.0 °F 60.6 °F 92% 30.06 in 10.0 mi Calm Calm - N/A   Overcast
5:55 AM 63.3 °F 60.8 °F 91% 30.06 in 10.0 mi Calm Calm - N/A   Overcast
6:18 AM 62.6 °F 60.3 °F 92% 30.06 in 10.0 mi Calm Calm - N/A   Scattered Clouds
6:36 AM 60.4 °F 58.8 °F 94% 30.07 in 7.0 mi Calm Calm - N/A   Clear
6:55 AM 61.0 °F 59.7 °F 96% 30.08 in 10.0 mi Calm Calm - N/A   Clear
7:15 AM 59.9 °F 58.5 °F 95% 30.08 in 10.0 mi Calm Calm - N/A   Clear
7:16 AM 59.9 °F 58.6 °F 96% 30.08 in 10.0 mi Calm Calm - N/A   Clear
7:39 AM 60.3 °F 59.4 °F 97% 30.09 in 2.5 mi Calm Calm - N/A   Mostly Cloudy
8:15 AM 62.6 °F 61.5 °F 96% 30.10 in 10.0 mi Calm Calm - N/A   Overcast
8:35 AM 65.5 °F 63.5 °F 93% 30.10 in 10.0 mi Calm Calm - N/A   Overcast
8:55 AM 66.7 °F 64.0 °F 91% 30.11 in 10.0 mi Calm Calm - N/A   Overcast
9:18 AM 67.8 °F 64.9 °F 90% 30.11 in 10.0 mi Calm Calm - N/A   Overcast
9:36 AM 67.5 °F 64.6 °F 90% 30.12 in 10.0 mi Calm Calm - N/A   Overcast
9:55 AM 68.2 °F 65.3 °F 90% 30.12 in 10.0 mi NNE 3.5 mph - N/A   Overcast
10:15 AM 69.3 °F 65.8 °F 89% 30.12 in 10.0 mi NNE 3.5 mph - N/A   Overcast
10:39 AM 70.9 °F 66.2 °F 85% 30.12 in 10.0 mi North 8.1 mph - N/A   Overcast
10:57 AM 70.9 °F 64.9 °F 81% 30.12 in 10.0 mi North 8.1 mph - N/A   Overcast
11:15 AM 72.9 °F 65.5 °F 78% 30.12 in 10.0 mi North 8.1 mph - N/A   Overcast
11:16 AM 72.9 °F 65.5 °F 78% 30.12 in 10.0 mi North 6.9 mph - N/A   Overcast
11:55 AM 72.7 °F 65.1 °F 77% 30.12 in 10.0 mi North 4.6 mph - N/A   Overcast
12:18 PM 72.7 °F 64.9 °F 77% 30.12 in 10.0 mi North 5.8 mph - N/A   Overcast
12:35 PM 73.6 °F 65.5 °F 76% 30.12 in 10.0 mi NNE 5.8 mph - N/A   Overcast
12:55 PM 73.2 °F 65.1 °F 76% 30.12 in 10.0 mi North 9.2 mph - N/A   Mostly Cloudy
12:56 PM 73.0 °F 65.1 °F 76% 30.12 in 10.0 mi North 8.1 mph - N/A   Mostly Cloudy
1:15 PM 74.7 °F 65.7 °F 73% 30.12 in 10.0 mi NNW 11.5 mph - N/A   Overcast
1:39 PM 74.3 °F 65.7 °F 74% 30.12 in 10.0 mi NNE 6.9 mph - N/A   Scattered Clouds
1:57 PM 74.1 °F 64.9 °F 73% 30.11 in 10.0 mi NNE 4.6 mph - N/A   Mostly Cloudy
2:15 PM 75.6 °F 65.7 °F 71% 30.11 in 10.0 mi North 8.1 mph - N/A   Mostly Cloudy
2:16 PM 75.2 °F 65.7 °F 72% 30.11 in 10.0 mi North 6.9 mph - N/A   Mostly Cloudy
2:35 PM 75.7 °F 64.4 °F 68% 30.11 in 10.0 mi North 9.2 mph - N/A   Mostly Cloudy
2:55 PM 74.5 °F 64.6 °F 71% 30.11 in 10.0 mi North 6.9 mph - N/A   Mostly Cloudy
3:18 PM 74.3 °F 63.7 °F 69% 30.11 in 10.0 mi North 6.9 mph - N/A   Overcast
3:36 PM 75.4 °F 64.8 °F 69% 30.10 in 10.0 mi North 8.1 mph - N/A   Mostly Cloudy
3:55 PM 74.5 °F 64.0 °F 70% 30.10 in 10.0 mi NNE 6.9 mph - N/A   Mostly Cloudy
3:56 PM 74.7 °F 64.2 °F 70% 30.10 in 10.0 mi NNE 8.1 mph - N/A   Mostly Cloudy
4:15 PM 75.2 °F 64.9 °F 70% 30.10 in 10.0 mi North 6.9 mph - N/A   Overcast
4:39 PM 74.7 °F 63.9 °F 69% 30.10 in 10.0 mi North 10.4 mph - N/A   Mostly Cloudy
4:57 PM 74.3 °F 64.8 °F 72% 30.10 in 10.0 mi North 6.9 mph - N/A   Mostly Cloudy
5:15 PM 74.5 °F 64.2 °F 70% 30.10 in 10.0 mi North 6.9 mph - N/A   Scattered Clouds
5:35 PM 72.5 °F 63.9 °F 74% 30.10 in 10.0 mi Calm Calm - N/A   Mostly Cloudy
5:36 PM 72.5 °F 63.9 °F 74% 30.10 in 10.0 mi Calm Calm - N/A   Mostly Cloudy
5:55 PM 74.5 °F 63.9 °F 69% 30.10 in 10.0 mi NNW 8.1 mph - N/A   Scattered Clouds
5:59 PM 74.3 °F 64.4 °F 71% 30.10 in 10.0 mi NNW 9.2 mph - N/A   Scattered Clouds
6:17 PM 73.4 °F 64.2 °F 73% 30.11 in 10.0 mi North 8.1 mph - N/A   Clear
6:35 PM 72.9 °F 63.7 °F 73% 30.10 in 10.0 mi North 8.1 mph - N/A   Clear
6:55 PM 72.5 °F 63.1 °F 72% 30.11 in 10.0 mi North 6.9 mph - N/A   Clear
6:56 PM 72.5 °F 63.1 °F 72% 30.11 in 10.0 mi North 5.8 mph - N/A   Clear
7:15 PM 71.4 °F 62.2 °F 73% 30.11 in 10.0 mi North 5.8 mph - N/A   Clear
7:20 PM 70.9 °F 62.6 °F 75% 30.11 in 10.0 mi North 4.6 mph - N/A   Clear
7:38 PM 70.0 °F 62.8 °F 78% 30.11 in 10.0 mi North 3.5 mph - N/A   Clear
7:56 PM 68.0 °F 62.6 °F 83% 30.11 in 10.0 mi North 3.5 mph - N/A   Clear
8:15 PM 67.1 °F 62.6 °F 85% 30.11 in 10.0 mi NNW 3.5 mph - N/A   Clear
8:35 PM 66.9 °F 63.0 °F 87% 30.12 in 10.0 mi North 3.5 mph - N/A   Clear
8:36 PM 67.1 °F 63.0 °F 87% 30.12 in 10.0 mi North 3.5 mph - N/A   Clear
8:59 PM 65.8 °F 62.4 °F 89% 30.12 in 10.0 mi North 3.5 mph - N/A   Clear
9:17 PM 66.4 °F 62.2 °F 86% 30.12 in 10.0 mi North 4.6 mph - N/A   Clear
9:35 PM 65.5 °F 62.1 °F 89% 30.13 in 10.0 mi North 3.5 mph - N/A   Clear
9:55 PM 65.8 °F 61.9 °F 87% 30.13 in 10.0 mi North 3.5 mph - N/A   Clear
9:56 PM 66.0 °F 61.7 °F 86% 30.13 in 10.0 mi North 3.5 mph - N/A   Clear
10:15 PM 66.4 °F 61.3 °F 84% 30.14 in 10.0 mi North 3.5 mph - N/A   Clear
10:20 PM 66.2 °F 61.2 °F 84% 30.14 in 10.0 mi Calm Calm - N/A   Clear
10:38 PM 63.0 °F 59.9 °F 90% 30.14 in 10.0 mi NE 3.5 mph - N/A   Clear
10:56 PM 63.1 °F 60.6 °F 91% 30.14 in 10.0 mi NNE 3.5 mph - N/A   Clear
11:15 PM 64.4 °F 61.0 °F 89% 30.15 in 10.0 mi NNE 3.5 mph - N/A   Clear
11:16 PM 64.4 °F 61.0 °F 89% 30.15 in 10.0 mi NNE 3.5 mph - N/A   Clear
11:35 PM 63.1 °F 60.8 °F 92% 30.15 in 10.0 mi NE 4.6 mph - N/A   Clear
11:36 PM 63.1 °F 60.8 °F 92% 30.15 in 10.0 mi NE 4.6 mph - N/A   Clear
11:59 PM 62.8 °F 60.6 °F 93% 30.14 in 10.0 mi ENE 4.6 mph - N/A   Clear